Clarksburg, WV

1:59 AM EDT on April 25, 2018 (GMT -0400)
Benedum

Weather History for KCKB - March, 2013

Change the Weather History Date:

Friday, March 29, 2013

  Actual Average Record
Temperature  
Mean Temperature 44 °F 46 °F  
Max Temperature 53 °F 58 °F 84 °F (1989)
Min Temperature 36 °F 35 °F 14 °F (1982)
Degree Days  
Heating Degree Days 22 19  
Month to date heating degree days 685  
Since 1 July heating degree days 4646  
Cooling Degree Days 0 0  
Month to date cooling degree days 0  
Year to date cooling degree days 0  
Moisture  
Dew Point 25 °F    
Average Humidity 50    
Maximum Humidity 76    
Minimum Humidity 31    
Precipitation  
Precipitation 0.00 in 0.14 in 1.37 in (1984)
Month to date precipitation 3.69  
Year to date precipitation 10.28  
Sea Level Pressure  
Sea Level Pressure 30.23 in    
Wind  
Wind Speed 3 mph (West)    
Max Wind Speed 14 mph    
Max Gust Speed 17 mph    
Visibility 10 miles    
Events      
T = Trace of Precipitation, MM = Missing Value Source: NWS Daily Summary

Daily Weather History Graph

Daily Weather History Graph

Search for Another Location

Airport or City:

Astronomy

Mar. 29, 2013 Rise Set
Actual Time 7:09 AM EDT 7:42 PM EDT
Civil Twilight 6:42 AM EDT 8:09 PM EDT
Nautical Twilight 6:11 AM EDT 8:40 PM EDT
Astronomical Twilight 5:38 AM EDT 9:13 PM EDT
Moon 10:39 PM EDT (3/29) 8:18 AM EDT (3/29)
Length of Visible Light 13h 26m
Length of Day
12h 32m
Waning Gibbous, 93% of the Moon is Illuminated
Mar 29
Waning Gibbous
Apr 3
Last Quarter
Apr 10
New
Apr 18
First Quarter
Apr 25
Full

Hourly Weather History & Observations

Time (EDT) Temp. Windchill Dew Point Humidity Pressure Visibility Wind Dir Wind Speed Gust Speed Precip Events Conditions
12:53 AM 39.0 °F - 25.0 °F 57% 30.27 in 10.0 mi Calm Calm - N/A   Overcast
1:53 AM 37.9 °F - 28.0 °F 68% 30.27 in 10.0 mi Calm Calm - N/A   Overcast
2:53 AM 37.0 °F - 27.0 °F 67% 30.27 in 10.0 mi Calm Calm - N/A   Overcast
3:53 AM 37.9 °F - 26.1 °F 62% 30.27 in 10.0 mi Calm Calm - N/A   Overcast
4:53 AM 37.0 °F - 27.0 °F 67% 30.26 in 10.0 mi Calm Calm - N/A   Overcast
5:53 AM 36.0 °F - 28.0 °F 73% 30.27 in 10.0 mi Calm Calm - N/A   Overcast
6:53 AM 36.0 °F - 28.0 °F 73% 30.27 in 10.0 mi Calm Calm - N/A   Overcast
7:53 AM 36.0 °F - 28.9 °F 76% 30.28 in 10.0 mi Calm Calm - N/A   Overcast
8:53 AM 37.9 °F 33.5 °F 28.9 °F 70% 30.28 in 10.0 mi South 5.8 mph - N/A   Overcast
9:53 AM 42.1 °F 37.7 °F 28.0 °F 58% 30.28 in 10.0 mi SW 6.9 mph - N/A   Overcast
10:53 AM 46.0 °F 41.4 °F 28.0 °F 50% 30.27 in 10.0 mi WSW 9.2 mph - N/A   Partly Cloudy
11:53 AM 48.9 °F - 25.0 °F 39% 30.26 in 10.0 mi WNW 8.1 mph - N/A   Mostly Cloudy
12:53 PM 50.0 °F - 26.1 °F 39% 30.24 in 10.0 mi WSW 13.8 mph 17.3 mph N/A   Mostly Cloudy
1:53 PM 50.0 °F - 25.0 °F 38% 30.22 in 10.0 mi WSW 10.4 mph 17.3 mph N/A   Overcast
2:53 PM 50.0 °F - 23.0 °F 35% 30.20 in 10.0 mi WSW 5.8 mph - N/A   Mostly Cloudy
3:53 PM 51.1 °F - 21.0 °F 31% 30.18 in 10.0 mi NW 9.2 mph - N/A   Overcast
4:53 PM 51.1 °F - 21.0 °F 31% 30.17 in 10.0 mi West 9.2 mph 17.3 mph N/A   Mostly Cloudy
5:53 PM 51.1 °F - 21.0 °F 31% 30.18 in 10.0 mi West 4.6 mph - N/A   Mostly Cloudy
6:53 PM 48.9 °F - 21.0 °F 33% 30.18 in 10.0 mi West 6.9 mph - N/A   Overcast
7:53 PM 46.9 °F - 21.0 °F 36% 30.18 in 10.0 mi WNW 4.6 mph - N/A   Overcast
8:53 PM 46.9 °F - 21.9 °F 37% 30.19 in 10.0 mi West 3.5 mph - N/A   Overcast
9:53 PM 45.0 °F - 23.0 °F 42% 30.20 in 10.0 mi Calm Calm - N/A   Overcast
10:53 PM 45.0 °F - 24.1 °F 44% 30.20 in 10.0 mi Calm Calm - N/A   Overcast
11:53 PM 44.1 °F - 23.0 °F 43% 30.20 in 10.0 mi Calm Calm - N/A   Overcast